Flag for Germany Weather past 2 weeks in Salzwedel, Saxony-Anhalt, Germany

Now
52 °F

Thunderstorms. Broken clouds.


Feels Like: 49 °F
Forecast: 54 / 67 °F
Wind: 9 mph from Northwest

Location: Fassberg

Current Time: Jul 29, 2015 at 4:01:44 PM

Latest Report: Jul 29, 2015 at 3:20 PM


Visibility: 6 mi

Pressure: 29.68 "Hg

Humidity: 88%

Dew point: 48 °F

Location of SalzwedelLocation

Historic Weather in Salzwedel — Graph

°F

Salzwedel temperature yesterday

Maximum temperature yesterday: 66 °F (at 2:20 PM)
Minimum temperature yesterday: 55 °F (at 7:20 AM)
Average temperature yesterday: 60 °F

Past Weeks' High & Low Weather Summary

 TemperatureHumidityPressure
High90 °F (Jul 17, 4:20 PM)100% (Jul 15, 5:20 AM)30.12 "Hg (Jul 15, 5:20 AM)
Low45 °F (Jul 24, 5:20 AM)33% (Jul 17, 4:20 PM)29.45 "Hg (Jul 25, 2:20 PM)
Average64 °F76%29.85 "Hg
* Reported Jul 14 2:20 PM — Jul 29 2:45 PM, Salzwedel, Weather by CustomWeather, © 2015

Note: Actual official high and low records may vary slightly from our data, if they occured in-between our weather recording intervals... More about our weather records

Advertising

Salzwedel weather history for previous 24 hours

 ConditionsComfort  
Time TempWeatherWind HumidityBarometerVisibility
2:45 PM
Wed, Jul 29
54 °FRain showers. Partly sunny.17 mph82%29.68 "Hg4 mi
2:20 PM61 °FScattered clouds.14 mph68%29.65 "HgN/A
1:20 PM64 °FScattered clouds.17 mph56%29.62 "HgN/A
12:20 PM61 °FSprinkles. Broken clouds.17 mph63%29.65 "HgN/A
11:20 AM61 °FPartly sunny.17 mph63%29.65 "HgN/A
10:20 AM59 °FPartly sunny.12 mph68%29.68 "HgN/A
9:20 AM57 °FPartly sunny.14 mph72%29.68 "HgN/A
8:20 AM57 °FPartly sunny.13 mph72%29.68 "HgN/A
7:20 AM55 °FPartly sunny.13 mph77%29.68 "HgN/A
6:20 AM55 °FPassing clouds.10 mph72%29.65 "HgN/A
5:20 AM55 °FPassing clouds.10 mph72%29.65 "HgN/A
4:20 AM57 °FPassing clouds.13 mph72%29.65 "HgN/A
3:20 AM57 °FPassing clouds.14 mph72%29.65 "HgN/A
2:20 AM57 °FPassing clouds.9 mph77%29.65 "HgN/A
1:20 AM57 °FPassing clouds.12 mph77%29.68 "HgN/A
12:20 AM57 °FPassing clouds.10 mph77%29.68 "HgN/A
11:20 PM
Tue, Jul 28
57 °FPartly cloudy.12 mph77%29.68 "HgN/A
10:20 PM57 °FPassing clouds.7 mph88%29.68 "HgN/A
9:20 PM59 °FScattered showers. Partly sunny.7 mph82%29.65 "HgN/A
8:20 PM59 °FBroken clouds.7 mph82%29.65 "HgN/A
7:20 PM61 °FBroken clouds.9 mph77%29.65 "HgN/A
6:20 PM61 °FBroken clouds.16 mph77%29.65 "HgN/A
5:20 PM63 °FSprinkles. Partly sunny.20 mph73%29.62 "Hg5 mi
4:20 PM64 °FBroken clouds.15 mph68%29.62 "HgN/A
Weather by CustomWeather, © 2015

See weather overviewHow to use our weather pages